Terminal Aerodrome Forecast
Issued by NWS Sioux Falls, SD

Home | Current Version | Previous Version | Text Only | Print | Product List | Glossary On
Versions: 1 2 3 4 5 6 7 8 9 10 11 12 13 14 15 16 17 18
000
FTUS43 KFSD 241927 AAA
TAFHON
TAF AMD
KHON 241927Z 2419/2518 16014G20KT 4SM BR OVC007
     FM242100 16012G19KT P6SM BKN009
      TEMPO 2421/2424 SCT009 BKN050
     FM250000 16009KT P6SM SCT030
     FM250900 30014KT P6SM BKN030
     FM251500 31020G28KT P6SM BKN035=

USA.gov is the U.S. government's official web portal to all federal, state and local government web resources and services.